Weather History for Ironwood, MI

Change the Weather History Date:

Thursday, May 23, 2013

  Actual Average Record
Temperature  
Mean Temperature 43 °F -  
Max Temperature 51 °F 62 °F 80 °F (2006)
Min Temperature 35 °F 40 °F 30 °F (2003)
Degree Days  
Heating Degree Days 22    
Moisture  
Dew Point 28 °F    
Average Humidity 61    
Maximum Humidity 76    
Minimum Humidity 37    
Precipitation  
Precipitation 0.01 in - - ()
Sea Level Pressure  
Sea Level Pressure 30.23 in    
Wind  
Wind Speed 10 mph (NNE)    
Max Wind Speed 16 mph    
Max Gust Speed 28 mph    
Visibility 10 miles    
Events      
Averages and records for this station are not official NWS values.
T = Trace of Precipitation, MM = Missing Value Source: NWS Daily Summary

Daily Weather History Graph

Daily Weather History Graph

Search for Another Location

Airport:

Trip Planner

Search our weather history database for the weather conditions in past years. The results will help you decide how hot, cold, wet, or windy it might be!

Date:

Astronomy

May. 23, 2013 Rise Set
Actual Time 5:17 AM CDT 8:37 PM CDT
Civil Twilight 4:41 AM CDT 9:14 PM CDT
Nautical Twilight 3:53 AM CDT 10:02 PM CDT
Astronomical Twilight 2:52 AM CDT 11:04 PM CDT
Moon 7:05 PM CDT (5/23) 4:09 AM CDT (5/23)
Length of Visible Light 16h 33m
Length of Day
15h 19m
Waxing Gibbous, 97% of the Moon is Illuminated
May 23
Waxing Gibbous
May 24
Full
May 31
Last Quarter
Jun 8
New
Jun 16
First Quarter

Hourly Weather History & Observations

Time (CDT) Temp. Windchill Dew Point Humidity Pressure Visibility Wind Dir Wind Speed Gust Speed Precip Events Conditions
12:15 AM 41.0 °F 32.8 °F 33.8 °F 76% 30.04 in 10.0 mi ENE 16.1 mph 21.9 mph N/A   Mostly Cloudy
12:35 AM 41.0 °F 33.5 °F 32.0 °F 70% 30.05 in 10.0 mi ENE 13.8 mph 27.6 mph N/A   Mostly Cloudy
12:55 AM 39.2 °F 32.5 °F 32.0 °F 75% 30.06 in 10.0 mi ENE 10.4 mph 18.4 mph N/A   Mostly Cloudy
1:15 AM 39.2 °F 31.6 °F 30.2 °F 70% 30.06 in 10.0 mi NE 12.7 mph 19.6 mph N/A   Mostly Cloudy
1:35 AM 39.2 °F 33.0 °F 30.2 °F 70% 30.06 in 10.0 mi ENE 9.2 mph 18.4 mph N/A   Mostly Cloudy
1:55 AM 39.2 °F 31.6 °F 30.2 °F 70% 30.06 in 10.0 mi ENE 12.7 mph 23.0 mph N/A   Overcast
2:15 AM 39.2 °F 31.6 °F 30.2 °F 70% 30.07 in 10.0 mi ENE 12.7 mph 17.3 mph N/A   Overcast
2:35 AM 39.2 °F 33.6 °F 30.2 °F 70% 30.08 in 10.0 mi NE 8.1 mph 17.3 mph N/A   Overcast
2:55 AM 39.2 °F 32.0 °F 30.2 °F 70% 30.08 in 10.0 mi ENE 11.5 mph 17.3 mph N/A   Overcast
3:15 AM 39.2 °F 33.0 °F 28.4 °F 65% 30.09 in 10.0 mi NE 9.2 mph - N/A   Mostly Cloudy
3:35 AM 39.2 °F 33.6 °F 28.4 °F 65% 30.10 in 10.0 mi NE 8.1 mph 16.1 mph N/A   Partly Cloudy
3:55 AM 39.2 °F 32.0 °F 28.4 °F 65% 30.10 in 10.0 mi NE 11.5 mph 17.3 mph N/A   Clear
4:15 AM 37.4 °F 32.1 °F 28.4 °F 70% 30.11 in 10.0 mi NE 6.9 mph - N/A   Clear
4:35 AM 37.4 °F 31.4 °F 28.4 °F 70% 30.12 in 10.0 mi NNE 8.1 mph - N/A   Clear
4:55 AM 37.4 °F 34.9 °F 26.6 °F 65% 30.13 in 10.0 mi NNE 3.5 mph - N/A   Partly Cloudy
5:15 AM 37.4 °F 32.8 °F 26.6 °F 65% 30.14 in 10.0 mi NNE 5.8 mph - N/A   Clear
5:35 AM 35.6 °F 29.9 °F 28.4 °F 75% 30.15 in 10.0 mi NNE 6.9 mph - N/A   Clear
5:55 AM 35.6 °F 29.2 °F 28.4 °F 75% 30.16 in 10.0 mi NNE 8.1 mph - N/A   Clear
6:15 AM 35.6 °F 28.6 °F 28.4 °F 75% 30.17 in 10.0 mi NNE 9.2 mph - N/A   Clear
6:35 AM 35.6 °F 28.0 °F 28.4 °F 75% 30.18 in 10.0 mi NE 10.4 mph - N/A   Partly Cloudy
6:55 AM 35.6 °F 28.6 °F 28.4 °F 75% 30.19 in 10.0 mi NNE 9.2 mph 18.4 mph N/A   Mostly Cloudy
7:15 AM 37.4 °F 32.1 °F 28.4 °F 70% 30.20 in 10.0 mi NNE 6.9 mph 16.1 mph N/A   Overcast
7:35 AM 37.4 °F 30.8 °F 28.4 °F 70% 30.21 in 10.0 mi NE 9.2 mph 18.4 mph N/A   Overcast
7:55 AM 37.4 °F 30.8 °F 26.6 °F 65% 30.22 in 10.0 mi NNE 9.2 mph - N/A   Overcast
8:15 AM 37.4 °F 30.8 °F 28.4 °F 70% 30.22 in 10.0 mi NNE 9.2 mph - N/A   Mostly Cloudy
8:35 AM 37.4 °F 29.3 °F 26.6 °F 65% 30.23 in 10.0 mi NNE 12.7 mph 16.1 mph N/A   Overcast
8:55 AM 37.4 °F 29.3 °F 26.6 °F 65% 30.24 in 10.0 mi NNE 12.7 mph 17.3 mph N/A   Overcast
9:15 AM 37.4 °F 29.3 °F 26.6 °F 65% 30.25 in 10.0 mi NNE 12.7 mph 17.3 mph N/A   Overcast
9:35 AM 37.4 °F 31.4 °F 28.4 °F 70% 30.26 in 10.0 mi NNE 8.1 mph 17.3 mph N/A   Overcast
9:55 AM 35.6 °F 27.1 °F 28.4 °F 75% 30.26 in 10.0 mi North 12.7 mph 16.1 mph N/A   Overcast
10:35 AM - - - N/A% 30.27 in - North 12.7 mph - N/A   Unknown
10:55 AM 37.4 °F 31.4 °F 28.4 °F 70% 30.28 in 10.0 mi NNE 8.1 mph - N/A   Overcast
11:15 AM 37.4 °F 29.8 °F 28.4 °F 70% 30.28 in 10.0 mi North 11.5 mph 16.1 mph N/A   Overcast
11:35 AM 37.4 °F 30.8 °F 28.4 °F 70% 30.29 in 10.0 mi North 9.2 mph 16.1 mph N/A   Overcast
11:55 AM 37.4 °F 30.3 °F 28.4 °F 70% 30.29 in 10.0 mi North 10.4 mph 17.3 mph N/A   Overcast
12:15 PM 37.4 °F 30.3 °F 28.4 °F 70% 30.30 in 10.0 mi NNW 10.4 mph 16.1 mph N/A   Overcast
12:35 PM 39.2 °F 32.5 °F 28.4 °F 65% 30.30 in 10.0 mi North 10.4 mph - N/A   Mostly Cloudy
12:55 PM 39.2 °F 32.0 °F 26.6 °F 61% 30.30 in 10.0 mi North 11.5 mph 18.4 mph N/A   Partly Cloudy
1:15 PM 41.0 °F 34.7 °F 26.6 °F 57% 30.29 in 10.0 mi North 10.4 mph 19.6 mph N/A   Clear
1:35 PM 42.8 °F 38.0 °F 24.8 °F 49% 30.30 in 10.0 mi North 8.1 mph 19.6 mph N/A   Clear
1:55 PM 42.8 °F 35.8 °F 24.8 °F 49% 30.29 in 10.0 mi North 13.8 mph 20.7 mph N/A   Clear
2:15 PM 44.6 °F 40.7 °F 26.6 °F 49% 30.29 in 10.0 mi North 6.9 mph 17.3 mph N/A   Clear
2:35 PM 44.6 °F 38.1 °F 26.6 °F 49% 30.29 in 10.0 mi North 13.8 mph 20.7 mph N/A   Clear
2:55 PM 46.4 °F 40.7 °F 26.6 °F 46% 30.29 in 10.0 mi NNE 12.7 mph 18.4 mph N/A   Clear
3:15 PM 46.4 °F 40.7 °F 26.6 °F 46% 30.29 in 10.0 mi NE 12.7 mph 24.2 mph N/A   Clear
3:35 PM 46.4 °F 40.4 °F 26.6 °F 46% 30.30 in 10.0 mi North 13.8 mph 19.6 mph N/A   Clear
3:55 PM 46.4 °F 41.1 °F 26.6 °F 46% 30.30 in 10.0 mi NNE 11.5 mph 19.6 mph N/A   Clear
4:15 PM 46.4 °F 41.1 °F 26.6 °F 46% 30.30 in 10.0 mi North 11.5 mph 18.4 mph N/A   Clear
4:35 PM 46.4 °F 42.9 °F 26.6 °F 46% 30.30 in 10.0 mi NNE 6.9 mph - N/A   Clear
4:55 PM 48.2 °F - 28.4 °F 46% 30.30 in 10.0 mi NE 11.5 mph 16.1 mph N/A   Clear
5:15 PM 48.2 °F - 26.6 °F 43% 30.29 in 10.0 mi NE 10.4 mph 19.6 mph N/A   Clear
5:35 PM 50.0 °F - 26.6 °F 40% 30.29 in 10.0 mi NE 13.8 mph 17.3 mph N/A   Clear
5:55 PM 50.0 °F - 26.6 °F 40% 30.29 in 10.0 mi ENE 10.4 mph - N/A   Clear
6:15 PM 50.0 °F - 24.8 °F 37% 30.29 in 10.0 mi NE 8.1 mph - N/A   Clear
6:35 PM 51.8 °F - 26.6 °F 38% 30.29 in 10.0 mi ENE 5.8 mph - N/A   Clear
6:55 PM 51.8 °F - 26.6 °F 38% 30.30 in 10.0 mi NE 6.9 mph - N/A   Clear
7:15 PM 50.0 °F - 26.6 °F 40% 30.30 in 10.0 mi ENE 5.8 mph - N/A   Clear
7:35 PM 48.2 °F - 28.4 °F 46% 30.30 in 10.0 mi North 4.6 mph - N/A   Clear
7:55 PM 48.2 °F - 28.4 °F 46% 30.30 in 10.0 mi NNE 4.6 mph - N/A   Clear
8:15 PM 46.4 °F - 28.4 °F 50% 30.31 in 10.0 mi Calm Calm - N/A   Clear
8:35 PM 44.6 °F 43.1 °F 28.4 °F 53% 30.31 in 10.0 mi NE 3.5 mph - N/A   Clear
8:55 PM 42.8 °F 41.1 °F 30.2 °F 61% 30.31 in 10.0 mi NNE 3.5 mph - N/A   Clear
9:15 PM 42.8 °F - 30.2 °F 61% 30.32 in 10.0 mi Calm Calm - N/A   Clear
10:35 PM 37.4 °F - 30.2 °F 75% 30.33 in 10.0 mi Calm Calm - N/A   Clear
10:55 PM 37.4 °F - 30.2 °F 75% 30.33 in 10.0 mi Calm Calm - N/A   Clear